Location: Heisede
(52.2582°N, 9.8523°E)
Time: 21:56:26
(UTC+00:00)

USA 307 - Pass Details

Date: 13 January 2026
Orbit: 495 x 502 km, 54.0° (Epoch: 10 March)

Event Time Altitude Azimuth Distance (km) Brightness Sun altitude
Exits shadow 05:55:37 22° 288° (WNW) 1,155 3.8 -12.9°
Maximum altitude 05:58:10 81° 13° (NNE) 514 2.6 -12.6°
Drops below altitude 10° 06:02:03 10° 102° (ESE) 1,640 6.7 -12.0°
Sets 06:04:06 0° 104° (ESE) 2,437 8.2 -11.7°
